Home > Weather > Gdynia > Past weeks

Flag for Poland Weather for the Past 2 Weeks in Gdynia, Poland

Now
39 °F

Passing clouds.


Feels Like: 34 °F
Forecast: 40 / 46 °F
Wind: 8 mph from South

Location: Gdansk-Rebiechowo

Current Time: Feb 7, 2016 at 7:51:20 AM

Latest Report: Feb 7, 2016 at 7:30 AM


Visibility: N/A

Pressure: 29.74 "Hg

Humidity: 81%

Dew point: 34 °F

Location of GdyniaLocation

Historic Weather in Gdynia — Graph

°F

Gdynia Temperature Yesterday

Maximum temperature yesterday: 43 °F (at 2:00 PM)
Minimum temperature yesterday: 34 °F (at 12:00 AM)
Average temperature yesterday: 39 °F

High & Low Weather Summary for the Past Weeks

 TemperatureHumidityPressure
High46 °F (Jan 27, 1:00 PM)100% (Jan 24, 5:30 AM)30.33 "Hg (Jan 24, 5:30 AM)
Low16 °F (Jan 23, 7:00 AM)61% (Feb 3, 11:30 AM)29.39 "Hg (Jan 30, 9:30 PM)
Average37 °F87%29.86 "Hg
* Reported Jan 23 6:00 AM — Feb 7 6:30 AM, Gdynia, Weather by CustomWeather, © 2016

Note: Actual official high and low records may vary slightly from our data, if they occured in-between our weather recording intervals... More about our weather records

Advertising

Gdynia Weather History for the Previous 24 Hours

 ConditionsComfort  
Time TempWeatherWind HumidityBarometerVisibility
6:30 AM
Sun, Feb 7
39 °FPassing clouds.7 mph87%29.74 "HgN/A
6:00 AM39 °FPassing clouds.6 mph87%29.74 "HgN/A
5:30 AM39 °FPassing clouds.7 mph87%29.77 "HgN/A
5:00 AM39 °FPassing clouds.7 mph87%29.77 "HgN/A
4:30 AM41 °FPassing clouds.8 mph81%29.77 "HgN/A
4:00 AM41 °FPassing clouds.7 mph87%29.77 "HgN/A
3:30 AM41 °FPassing clouds.6 mph87%29.77 "HgN/A
3:00 AM41 °FClear.7 mph87%29.77 "Hg5 mi
2:30 AM41 °FClear.7 mph87%29.80 "Hg5 mi
2:00 AM41 °FClear.7 mph87%29.80 "Hg5 mi
1:30 AM41 °FClear.8 mph87%29.80 "Hg5 mi
1:00 AM41 °FClear.13 mph87%29.80 "Hg5 mi
12:30 AM41 °FClear.10 mph87%29.80 "Hg5 mi
12:00 AM41 °FClear.9 mph93%29.83 "Hg5 mi
11:30 PM
Sat, Feb 6
43 °FClear.9 mph87%29.83 "Hg5 mi
11:00 PM43 °FClear.12 mph87%29.83 "Hg5 mi
10:00 PM43 °FClear.12 mph87%29.83 "Hg4 mi
9:30 PM41 °FClear.9 mph93%29.86 "Hg4 mi
9:00 PM41 °FClear.7 mph93%29.86 "Hg4 mi
8:30 PM41 °FClear.7 mph93%29.86 "Hg4 mi
8:00 PM43 °FFog.7 mph87%29.86 "Hg3 mi
7:30 PM43 °FFog.7 mph87%29.89 "Hg2 mi
7:00 PM43 °FPassing clouds.6 mph93%29.89 "Hg2 mi
6:30 PM43 °FFog.7 mph93%29.92 "Hg2 mi
6:00 PM43 °FPassing clouds.6 mph93%29.92 "Hg2 mi
5:30 PM43 °FFog.3 mph87%29.92 "Hg2 mi
5:00 PM43 °FFog.7 mph87%29.92 "Hg2 mi
4:30 PM43 °FFog.8 mph93%29.92 "Hg2 mi
4:00 PM43 °FFog.9 mph93%29.95 "Hg2 mi
3:30 PM43 °FFog.9 mph93%29.92 "Hg2 mi
3:00 PM43 °FFog.8 mph93%29.95 "Hg2 mi
2:30 PM43 °FFog.8 mph93%29.95 "Hg2 mi
2:00 PM43 °FFog.9 mph93%29.95 "Hg2 mi
1:30 PM41 °FFog.8 mph93%29.98 "Hg1 mi
1:00 PM41 °FFog.7 mph93%29.98 "Hg1 mi
12:30 PM41 °FFog.8 mph93%30.01 "Hg2 mi
12:00 PM39 °FFog.9 mph100%30.01 "Hg2 mi
11:30 AM39 °FFog.8 mph93%30.01 "Hg2 mi
11:00 AM39 °FFog.8 mph93%30.01 "Hg1 mi
10:30 AM37 °FFog.7 mph100%30.01 "Hg1 mi
10:00 AM37 °FFog.7 mph93%30.04 "Hg1 mi
9:30 AM37 °FFog.5 mph93%30.04 "Hg1 mi
9:00 AM36 °FFog.7 mph100%30.04 "Hg1 mi
8:30 AM36 °FFog.7 mph100%30.04 "Hg1 mi
8:00 AM36 °FFog.6 mph100%30.04 "Hg2 mi
7:30 AM36 °FFog.3 mph93%30.04 "Hg1 mi
7:00 AM36 °FFog.3 mph93%30.04 "Hg3 mi
Weather by CustomWeather, © 2016

See weather overviewHow to use our weather pages